This is the latest recevied weather packets stored in our database for station/object HOWARD. If no packets are shown the sender has not sent any weather packets the latest 10 day(s).
| Time | Temp. | Humidity | Pressure | Rain* | Wind** | Luminosity | Snow |
|---|---|---|---|---|---|---|---|
| 1777674104 | 10° C | - | 1016.8 hPa | 0 mm | - | - | - |
| 1777673503 | 9.44° C | 40% | 1017 hPa | 0 mm | - | - | - |
| 1777672903 | 9.44° C | 40% | 1017.2 hPa | 0 mm | - | - | - |
| 1777672303 | 9.44° C | 41% | 1017.2 hPa | 0 mm | - | - | - |
| 1777671703 | 9.44° C | 41% | 1017.3 hPa | 0 mm | - | - | - |
| 1777671103 | 9.44° C | 40% | 1017.4 hPa | 0 mm | - | - | - |
| 1777670503 | 9.44° C | 42% | 1017.5 hPa | 0 mm | - | - | - |
| 1777669903 | 8.89° C | 44% | 1016.8 hPa | 0 mm | - | - | - |
| 1777669303 | 8.89° C | 42% | 1016.7 hPa | 0 mm | - | - | - |
| 1777668702 | 8.89° C | 43% | 1016.9 hPa | 0 mm | - | - | - |
| 1777668103 | 8.33° C | 43% | 1017.1 hPa | 0 mm | - | - | - |
| 1777667503 | 8.89° C | 42% | 1017.1 hPa | 0 mm | - | - | - |
| 1777666903 | 8.33° C | 43% | 1017.2 hPa | 0 mm | - | - | - |
| 1777666303 | 8.33° C | 42% | 1017.2 hPa | 0 mm | - | - | - |
| 1777665703 | 8.33° C | 40% | 1017.1 hPa | 0 mm | - | - | - |
| 1777665102 | 8.33° C | 41% | 1017.2 hPa | 0 mm | - | - | - |
| 1777664502 | 7.78° C | - | 1017.4 hPa | 0 mm | - | - | - |
| 1777663902 | 7.78° C | 40% | 1017.3 hPa | 0 mm | - | - | - |
| 1777663303 | 8.33° C | 38% | 1017.2 hPa | 0 mm | - | - | - |
| 1777662702 | 7.78° C | 39% | 1017.3 hPa | 0 mm | - | - | - |
| 1777662135 | 7.78° C | 41% | 1017.3 hPa | 0 mm | - | - | - |
| 1777662102 | 7.78° C | 41% | 1017.3 hPa | 0 mm | - | - | - |
| 1777661502 | 7.78° C | 40% | 1017.4 hPa | 0 mm | - | - | - |
| 1777660902 | 7.78° C | 39% | 1017.4 hPa | 0 mm | - | - | - |
| 1777660302 | 7.78° C | 40% | 1017.3 hPa | 0 mm | - | - | - |
* Rain latest hour (hover to see other rain measurements)
** Current wind speed in m/s (hover to see current wind gust speed)